Waterloo, IA

1:23 AM CDT on September 20, 2019 (GMT -0500)
Waterloo Municipal

Weather History for KALO - August, 2019

Change the Weather History Date:

Thursday, August 22, 2019

  Actual Average Record
Temperature  
Mean Temperature 66 °F 71 °F  
Max Temperature 79 °F 82 °F 98 °F (1936)
Min Temperature 53 °F 60 °F 40 °F (1923)
Degree Days  
Heating Degree Days 0 1  
Month to date heating degree days 0 5  
Since 1 June heating degree days 9 35  
Since 1 July heating degree days 0 9  
Cooling Degree Days 1 6  
Month to date cooling degree days 167 158  
Year to date cooling degree days 745 662  
Since 1 June cooling degree days 708 606  
Growing Degree Days 16 (Base 50)    
Moisture  
Dew Point 56 °F    
Average Humidity 78    
Maximum Humidity 100    
Minimum Humidity 45    
Precipitation  
Precipitation 0.00 in 0.13 in 1.65 in (1924)
Month to date precipitation 3.44 3.14  
Year to date precipitation 28.23 25.15  
Snow  
Snow 0.00 in 0.00 in - ()
Month to date snowfall 0.0 0.0  
Since 1 June snowfall 0.0 0.0  
Since 1 July snowfall 0.0 0.0  
Snow Depth 0.00 in    
Sea Level Pressure  
Sea Level Pressure 30.04 in    
Wind  
Wind Speed 1 mph ()    
Max Wind Speed 9 mph    
Max Gust Speed 14 mph    
Visibility 7.7 miles    
Events Fog    
T = Trace of Precipitation, MM = Missing Value Source: Averaged Metar Reports

Daily Weather History Graph

Daily Weather History Graph

Search for Another Location

Airport or City:

Astronomy

Aug. 22, 2019 Rise Set
Actual Time 6:23 AM CDT 8:00 PM CDT
Civil Twilight 5:53 AM CDT 8:30 PM CDT
Nautical Twilight 5:17 AM CDT 9:06 PM CDT
Astronomical Twilight 4:39 AM CDT 9:44 PM CDT
Moon 11:41 PM CDT (8/22) 1:08 PM CDT (8/22)
Length of Visible Light 14h 36m
Length of Day
13h 36m
Waning Gibbous, 59% of the Moon is Illuminated
Aug 22
Waning Gibbous
Aug 23
Last Quarter
Aug 30
New
Sep 5
First Quarter
Sep 13
Full

Hourly Weather History & Observations

Time (CDT) Temp. Dew Point Humidity Pressure Visibility Wind Dir Wind Speed Gust Speed Precip Events Conditions
12:54 AM 61.0 °F 57.9 °F 90% 30.06 in 10.0 mi Calm Calm - N/A   Clear
1:54 AM 60.1 °F 57.0 °F 90% 30.04 in 10.0 mi Calm Calm - N/A   Clear
2:54 AM 57.9 °F 55.9 °F 93% 30.03 in 10.0 mi Calm Calm - N/A   Clear
3:54 AM 57.0 °F 55.0 °F 93% 30.02 in 10.0 mi Calm Calm - N/A   Clear
4:54 AM 57.0 °F 55.0 °F 93% 30.03 in 9.0 mi Calm Calm - N/A   Clear
5:30 AM 55.9 °F 53.1 °F 90% 30.03 in 10.0 mi Calm Calm - N/A   Partly Cloudy
5:40 AM 55.0 °F 53.1 °F 93% 30.03 in 1.2 mi Calm Calm - N/A   Scattered Clouds
5:42 AM 55.0 °F 53.1 °F 93% 30.03 in 0.8 mi Calm Calm - N/A   Mist
5:54 AM 54.0 °F 52.0 °F 93% 30.03 in 0.5 mi Calm Calm - N/A Fog Fog
6:08 AM 54.0 °F 53.1 °F 97% 30.03 in 1.5 mi NNW 3.5 mph - N/A   Mostly Cloudy
6:18 AM 54.0 °F 52.0 °F 93% 30.03 in 0.5 mi Calm Calm - N/A Fog Fog
6:35 AM 53.1 °F 52.0 °F 96% 30.04 in 1.2 mi Calm Calm - N/A   Scattered Clouds
6:54 AM 54.0 °F 53.1 °F 97% 30.04 in 1.5 mi Calm Calm - N/A   Partly Cloudy
6:58 AM 54.0 °F 53.1 °F 97% 30.05 in 3.0 mi Calm Calm - N/A   Partly Cloudy
7:54 AM 60.1 °F 57.0 °F 90% 30.05 in 10.0 mi Calm Calm - N/A   Clear
8:54 AM 66.0 °F 59.0 °F 78% 30.06 in 10.0 mi Calm Calm - N/A   Clear
9:54 AM 70.0 °F 61.0 °F 73% 30.06 in 10.0 mi Variable 3.5 mph - N/A   Clear
10:54 AM 73.0 °F 59.0 °F 61% 30.06 in 10.0 mi WNW 3.5 mph - N/A   Clear
11:54 AM 75.0 °F 57.0 °F 53% 30.05 in 10.0 mi Calm Calm - N/A   Mostly Cloudy
12:54 PM 75.9 °F 55.0 °F 48% 30.04 in 10.0 mi North - - N/A   Clear
1:54 PM 78.1 °F 57.9 °F 50% 30.03 in 10.0 mi Variable 4.6 mph - N/A   Mostly Cloudy
2:54 PM 77.0 °F 55.0 °F 47% 30.03 in 10.0 mi Variable 3.5 mph - N/A   Scattered Clouds
3:54 PM 77.0 °F 57.0 °F 50% 30.02 in 10.0 mi NNE 6.9 mph - N/A   Partly Cloudy
4:54 PM 77.0 °F 55.9 °F 48% 30.01 in 10.0 mi North 8.1 mph - N/A   Clear
5:54 PM 78.1 °F 55.9 °F 46% 30.01 in 10.0 mi NE 4.6 mph - N/A   Clear
6:54 PM 75.0 °F 60.1 °F 60% 30.02 in 10.0 mi Calm Calm - N/A   Clear
7:54 PM 71.1 °F 59.0 °F 66% 30.03 in 10.0 mi Calm Calm - N/A   Clear
8:54 PM 64.9 °F 61.0 °F 87% 30.04 in 10.0 mi NNW 5.8 mph - N/A   Clear
9:54 PM 63.0 °F 57.9 °F 84% 30.06 in 10.0 mi NNE 5.8 mph - N/A   Clear
10:54 PM 63.0 °F 57.9 °F 84% 30.05 in 10.0 mi Calm Calm - N/A   Clear
11:54 PM 62.1 °F 57.0 °F 84% 30.07 in 10.0 mi North 3.5 mph - N/A   Mostly Cloudy